Location: Clandonald
(53.5720°N, 110.7141°W)
Time: 01:51:19
(UTC+00:00)

Envisat - Visible Passes

Search period start: 01 October 2020 00:00
Search period end: 11 October 2020 00:00
Orbit: 764 x 766 km, 98.1° (Epoch: 30 September)

Date Brightness Start Highest point End Pass type
(mag) Time Alt. Az. Time Alt. Az. Time Alt. Az.
02 Oct 6.4 02:09:08 10° WSW 02:11:47 14° W 02:14:27 10° NW visible
02 Oct 5.8 12:29:38 10° NE 12:33:43 24° E 12:37:46 10° SE visible
03 Oct 5.6 01:30:14 10° SSW 01:34:30 27° W 01:38:48 10° NW visible
03 Oct 6.5 11:54:20 10° ENE 11:56:23 12° E 11:58:26 10° ESE visible
04 Oct 4.9 12:54:41 10° NNE 12:59:24 36° E 13:04:05 10° SSE visible
05 Oct 6.2 01:56:57 10° SW 02:00:15 17° W 02:03:35 10° NW visible
05 Oct 6.0 12:18:33 10° NE 12:22:13 20° E 12:25:52 10° SE visible
06 Oct 5.2 01:18:30 10° SSW 01:23:01 32° W 01:27:35 10° NNW visible
07 Oct 6.7 02:25:06 10° W 02:26:07 11° W 02:27:09 10° WNW visible
07 Oct 5.3 12:43:27 10° NNE 12:47:57 30° E 12:52:24 10° SSE visible
08 Oct 6.0 01:44:57 10° SW 01:48:44 21° W 01:52:33 10° NW visible
08 Oct 6.2 12:07:33 10° NE 12:10:42 16° E 12:13:49 10° SE visible
10 Oct 6.4 02:12:12 10° WSW 02:14:34 13° W 02:16:55 10° NW visible
10 Oct 5.6 12:32:16 10° NE 12:36:28 25° E 12:40:38 10° SSE visible
